Location: ???? ?????????
(44.1940°N, 135.4810°E)
Time: 23:50:05
(UTC+00:00)

Daily predictions for brighter satellites

Satellite Brightness Start Highest point End
(mag) Time Altitude Azimuth Time Altitude Azimuth Time Altitude Azimuth
Cosmos 1455 1.2 12:01:41 10° N 12:04:24 70° E 12:06:01 21° SSE
Okean O Rocket 2.8 12:01:31 10° SSW 12:05:32 39° W 12:09:35 10° NNW
ATLAS CENTAUR R/B 1.8 12:04:34 10° NNW 12:08:16 44° NE 12:10:45 18° ESE
RESURS DK-1 2.9 12:07:18 15° S 12:10:11 35° ESE 12:13:51 10° NE
In-Cosmos 22 4.3 12:05:52 10° SSW 12:11:37 82° W 12:17:18 10° N
Cosmos 2237 Rocket 2.4 12:09:24 10° NNW 12:15:04 72° WSW 12:19:38 16° SSE
PSLV R/B 3.7 12:15:19 23° SE 12:17:03 50° ENE 12:20:15 10° N
USA 305 2.4 12:15:05 10° SW 12:19:03 87° SE 12:22:32 10° NE
Cosmos 921 Rocket 2.9 12:16:08 10° SSW 12:20:21 87° W 12:24:43 10° NNE
Cosmos 2016 Rocket 4.4 12:19:12 10° N 12:25:21 49° ENE 12:29:33 20° SE
Meteor 2-10 Rocket 4.1 12:20:03 10° NNW 12:25:41 62° W 12:30:38 12° S
Meteor 1-22 Rocket 4.1 12:24:42 10° N 12:30:04 78° E 12:33:51 21° SSE
SL-8 R/B 4.2 12:26:49 10° WNW 12:31:33 58° NNE 12:36:14 10° E
Cosmos 1437 Rocket 2.6 12:30:19 27° SSE 12:31:59 55° E 12:35:29 10° NNE
SL-14 R/B 4.0 12:32:35 10° SSW 12:36:24 52° W 12:40:16 10° N
USA 276 2.3 12:37:10 10° WNW 12:38:43 33° WSW 12:38:43 33° WSW
Cosmos 1818 3.9 12:36:09 10° SW 12:41:33 67° NW 12:47:00 10° NNE
Cosmos 2297 Rocket 3.8 12:39:55 10° WSW 12:45:07 36° NW 12:50:20 10° NNE
Cosmos 2173 Rocket 4.2 12:43:52 10° NNW 12:50:00 67° W 12:54:35 18° S
Ariane Rocket 3.3 12:49:31 21° S 12:52:52 60° W 12:57:55 10° NNW
Meteor 1-12 Rocket 4.5 12:48:15 10° N 12:54:07 63° ENE 12:57:22 27° SSE
SPOT 3 Rocket 4.1 12:51:45 19° S 12:55:16 53° W 13:00:19 10° NNW
Cosmos 1864 Rocket 4.5 12:50:41 10° N 12:56:53 86° W 13:00:52 24° S
USA 290 2.7 12:58:10 40° E 12:58:10 40° E 13:01:05 10° NE
SL-4 R/B 2.5 12:59:04 36° SE 12:59:04 36° SE 13:02:32 10° ENE
Cosmos 1269 Rocket 4.0 12:59:05 26° S 13:01:55 61° ESE 13:07:08 10° NNE
Cosmos 1953 2.6 12:58:53 10° N 13:02:32 47° ENE 13:03:24 38° ESE
Cosmos 2233 Rocket 4.1 12:57:00 10° N 13:03:19 68° E 13:06:44 28° SSE
Lacrosse 4 Rocket 1.7 13:00:30 10° NW 13:04:39 58° WSW 13:06:10 35° S
Meteor 1-23 Rocket 4.2 13:04:30 20° SSW 13:08:30 79° W 13:14:08 10° N
SL-16 R/B 2.1 13:03:57 10° NNW 13:09:38 89° WSW 13:12:23 32° SSE
Cosmos 2228 Rocket 4.4 13:10:21 24° ESE 13:11:03 25° E 13:14:41 10° NE
COSMOS 2455 3.8 13:06:01 10° NW 13:11:30 37° WSW 13:14:48 21° SSW
Cosmos 1703 4.3 13:13:11 26° E 13:13:11 26° E 13:15:58 10° NNE
Cosmos 2227 Rocket 3.3 13:08:09 10° SW 13:13:31 45° WNW 13:18:56 10° NNE
Meteor 1-21 4.2 13:10:45 24° S 13:14:18 89° W 13:20:06 10° N
Cosmos 1725 Rocket 4.2 13:08:27 10° NNW 13:14:43 70° W 13:18:34 25° S
Cosmos 1992 Rocket 4.5 13:10:29 10° NNW 13:15:30 51° WSW 13:17:59 28° SSW
GP-B 3.0 13:11:52 10° N 13:16:16 87° W 13:17:57 38° S
Cosmos 2263 Rocket 2.3 13:13:29 13° SSW 13:18:35 78° WNW 13:24:19 10° NNE
Meteor 1-16 Rocket 4.3 13:13:57 10° N 13:19:47 82° E 13:22:33 33° SSE
Cosmos 1707 Rocket 4.2 13:23:04 34° ESE 13:23:41 36° E 13:27:37 10° NNE
Terra 4.5 13:23:22 10° W 13:24:19 11° W 13:25:16 10° WNW
CZ-4C R/B 3.0 13:23:55 10° NNE 13:26:58 55° E 13:26:58 55° E
Cosmos 1933 Rocket 4.3 13:23:37 10° NNW 13:27:49 45° W 13:29:34 29° SW
Cosmos 2084 Rocket 3.6 13:24:54 10° NW 13:28:56 52° WSW 13:29:39 45° SSW
Cosmos 1892 3.7 13:30:29 24° ENE 13:30:29 24° ENE 13:32:21 10° NNE
IRIDIUM 106 4.4 13:29:32 39° SSE 13:31:23 64° E 13:36:34 10° N
ALOS 2 4.1 13:30:06 21° E 13:31:33 25° ENE 13:35:07 10° NNE
Cosmos 1943 3.7 13:26:02 10° NNW 13:31:36 51° ENE 13:34:16 29° ESE
Landsat 5 4.4 13:30:19 10° NNE 13:34:10 33° E 13:34:22 33° ESE
Meteor 2-16 Rocket 4.4 13:32:36 28° SSW 13:36:00 80° W 13:42:08 10° N
Cosmos 2219 3.6 13:33:22 14° SW 13:38:19 64° WNW 13:44:04 10° NNE
Cosmos 1733 Rocket 3.3 13:35:03 10° N 13:39:23 56° E 13:40:16 46° SE
NOSS 3-1 (C) 4.4 13:33:41 10° NNW 13:40:44 59° NE 13:47:01 20° ESE
Cosmos 1869 Rocket 4.1 13:37:53 10° NNW 13:42:08 49° W 13:43:27 36° SW
SeaSat 1 4.4 13:39:47 11° E 13:43:15 21° NE 13:46:53 10° N
ATLAS CENTAUR R/B 3.1 13:41:26 10° WNW 13:43:57 17° WSW 13:44:09 17° WSW
ASTEX 1 3.4 13:39:15 10° N 13:44:13 70° E 13:45:37 46° SSE
CZ-2C R/B 3.7 13:40:14 10° NNE 13:44:46 68° ESE 13:45:49 50° SSE
Cosmos 2082 3.9 13:44:08 21° SW 13:48:02 70° WNW 13:53:48 10° NNE
Cosmos 1763 Rocket 4.0 13:46:06 10° NNW 13:51:07 50° ENE 13:52:52 35° ESE
Cosmos 2292 Rocket 3.0 13:51:43 61° NNW 13:51:43 61° NNW 13:54:12 10° N
Cosmos 2061 Rocket 4.4 13:45:44 10° NNW 13:51:51 56° W 13:54:53 29° SSW
Okean 3 3.6 13:51:36 46° SW 13:52:34 63° W 13:56:40 10° N
Okean 2 3.6 13:53:46 46° SW 13:54:35 57° W 13:58:27 10° N
MetOp-A 3.7 14:01:42 52° S 14:02:53 83° WSW 14:07:31 10° NNW
Cosmos 2227 4.1 14:04:11 44° S 14:05:55 70° ESE 14:11:31 10° NNE
USA 234 4.1 14:01:29 10° ENE 14:07:03 29° SE 14:07:15 29° SE
Cosmos 1862 Rocket 3.5 14:06:29 56° SSW 14:07:22 78° W 14:11:49 10° N
Cosmos 1140 Rocket 4.2 14:07:29 23° SW 14:10:28 48° WNW 14:15:26 10° N
Cosmos 1513 Rocket 4.5 14:05:33 10° N 14:11:58 87° W 14:14:26 41° S
USA 307 4.2 14:15:00 24° ENE 14:15:00 24° ENE 14:16:53 10° ENE
SL-8 R/B 3.6 14:09:15 10° WNW 14:13:57 59° SSW 14:14:12 58° SSW
ARIANE 5 R/B 2.7 14:13:51 55° SSW 14:14:33 65° WSW 14:19:01 10° NNW
USA 59 Rocket 1.9 14:13:26 10° N 14:16:20 22° NE 14:19:13 13° E
Spot 4 3.7 14:15:39 56° SSE 14:16:43 88° W 14:21:34 10° NNW
Okean 1-7 2.7 14:17:57 74° SSW 14:18:19 88° WNW 14:22:28 10° N
SWAS 4.3 14:22:27 10° NNW 14:26:30 67° WSW 14:26:30 67° WSW
Cosmos 1271 Rocket 2.9 14:27:15 57° ENE 14:27:15 57° ENE 14:30:26 10° NNE
Cosmos 1844 Rocket 2.6 14:26:47 47° SSW 14:28:29 81° ESE 14:34:12 10° NNE
NOSS 3-1 (A) 4.5 14:21:45 10° NNW 14:28:50 59° NE 14:35:51 16° ESE
ATLAS 2AS CENTAUR R/B 3.3 14:28:12 35° SE 14:29:48 40° ESE 14:36:12 10° NE
PSLV R/B 3.5 14:26:25 10° NNE 14:30:43 67° ESE 14:31:04 63° SE
Cosmos 1844 3.6 14:30:43 50° S 14:32:11 76° ESE 14:37:45 10° NNE
Cosmos 407 Rocket 3.9 14:30:32 33° SW 14:32:36 56° WNW 14:37:38 10° NNE
SJ 16-02 2.5 14:36:07 30° E 14:36:07 30° E 14:39:43 10° NE
SL-4 R/B 2.7 14:32:50 11° W 14:36:43 51° NNW 14:40:37 10° NE
Cosmos 1300 Rocket 4.4 14:34:11 10° N 14:38:20 38° ENE 14:39:05 35° E
Cosmos 2251 Rocket 3.5 14:37:13 46° SW 14:38:51 78° WNW 14:44:14 10° NNE
Meteor 1-24 Rocket 4.0 14:42:57 44° SSE 14:44:41 62° E 14:50:33 10° NNE
Cosmos 1464 Rocket 4.1 14:39:20 10° NNW 14:45:35 68° W 14:47:39 43° SSW
Cosmos 1954 Rocket 3.9 14:47:09 56° S 14:48:14 79° ESE 14:53:28 10° NNE
PSLV R/B 3.9 14:44:31 10° NNE 14:48:18 63° E 14:48:18 63° E
Cosmos 2228 Rocket 4.4 14:47:43 26° WSW 14:49:00 31° WNW 14:52:59 10° N
Meteor 2-17 Rocket 4.4 14:50:00 45° SSE 14:51:51 69° E 14:57:52 10° NNE
Cosmos 2034 Rocket 3.9 14:46:01 10° N 14:52:16 88° W 14:54:22 45° S
BREEZE-M DEB (TANK) 3.6 14:42:57 10° SW 14:52:41 49° SSE 14:55:59 10° ENE
SL-16 R/B 4.3 14:50:30 10° WNW 14:52:50 13° W 14:54:14 12° WSW
Aureole 3 Rocket 3.9 14:49:58 10° NNW 14:52:29 30° W 14:52:29 30° W
Cosmos 1190 Rocket 4.0 14:51:44 48° SW 14:53:14 76° WNW 14:58:32 10° NNE
Cosmos 1703 Rocket 3.4 14:54:19 70° SW 14:54:42 78° W 14:59:02 10° N
Cosmos 540 Rocket 3.6 14:50:17 10° NNW 14:55:17 55° WSW 14:56:03 50° SW
Meteor 2-5 Rocket 3.8 14:55:35 47° SSE 14:57:18 73° E 15:03:15 10° NNE
Cosmos 1782 Rocket 3.7 14:53:48 10° N 14:58:11 61° E 14:58:47 55° ESE
MINOTAUR IV R/B 4.4 15:01:11 69° SE 15:01:25 71° ESE 15:05:48 10° NNE
Cosmos 468 Rocket 3.9 14:59:22 10° NNW 15:04:28 66° WSW 15:05:19 56° SSW
Cosmos 841 Rocket 3.7 15:00:47 10° NNW 15:06:01 64° ENE 15:07:43 41° SE
NOSS 2-1 (D) 3.9 15:02:49 10° NNW 15:06:24 55° NE 15:07:44 38° ESE
ALOS 2 3.6 15:07:30 33° WSW 15:07:43 33° W 15:11:42 10° NNW
Cosmos 1833 Rocket 4.1 15:06:28 10° N 15:11:32 33° NE 15:16:04 12° ESE
Cosmos 1943 4.4 15:10:41 10° NW 15:15:16 26° WSW 15:16:02 25° WSW
Cosmos 2344 4.4 15:08:47 10° NW 15:17:03 53° WSW 15:22:12 32° S
SeaSat 1 2.4 15:19:25 57° SSW 15:20:12 67° WSW 15:25:06 10° NNW
Cosmos 1634 Rocket 3.9 15:18:30 10° N 15:24:49 89° ENE 15:27:04 43° S
Cosmos 2242 Rocket 3.8 15:24:58 52° SE 15:25:34 57° E 15:29:57 10° NNE
CZ-2C R/B 3.7 15:26:03 10° NNE 15:31:15 44° E 15:32:41 36° SE
Cosmos 1603 4.4 15:27:36 10° NW 15:32:37 35° WSW 15:33:20 33° WSW
NOSS 2-1 (C) 3.3 15:30:44 10° NW 15:34:27 86° SW 15:35:02 66° SSE
H-2A R/B 2.9 15:34:30 41° E 15:34:59 44° ENE 15:38:28 10° N
NOSS 2-1 (E) 3.4 15:33:52 10° NW 15:37:37 89° SSW 15:38:27 58° SE
Cosmos 968 Rocket 3.5 15:38:36 51° S 15:39:49 70° ESE 15:45:02 10° NNE
Cosmos 1606 3.0 15:39:19 10° N 15:41:35 46° NNW 15:41:35 46° NNW
USA 307 3.9 15:41:31 23° WNW 15:43:18 38° NNW 15:47:02 10° NE
Cosmos 2278 Rocket 3.7 15:42:00 20° SE 15:43:51 23° ESE 15:48:14 10° NE
CZ-2C R/B 2.7 15:47:16 36° SE 15:49:22 69° ENE 15:54:40 10° N
USA 234 3.2 15:43:56 10° NE 15:50:30 84° NW 15:54:34 25° WSW
Cosmos 1943 Rocket 3.7 15:50:11 20° SE 15:52:03 24° ESE 15:56:21 10° NE
Cosmos 1869 4.4 15:48:55 10° N 15:52:18 32° ENE 15:53:14 28° ESE
SL-12 R/B(2) 4.3 15:48:38 28° SW 15:53:24 81° NW 16:03:09 10° NE
Cosmos 1674 Rocket 4.1 15:56:29 40° SE 15:57:24 48° E 16:01:35 10° NNE
CZ-2D R/B 4.5 15:55:26 10° ENE 15:57:55 13° E 16:00:22 10° ESE
Nadezhda 4 Rocket 4.4 15:55:23 31° SSE 15:58:12 56° E 16:04:18 10° NNE
Landsat 4 3.8 16:00:59 49° NNW 16:00:59 49° NNW 16:03:14 10° NNW
STPSAT 2 (USA 217) 4.5 16:01:24 57° SW 16:02:16 83° WNW 16:06:44 10° NNE
USA 59 Rocket 0.6 16:01:38 10° NW 16:05:03 42° WSW 16:05:03 42° WSW
Cosmos 1741 Rocket 4.0 16:05:20 44° SSW 16:07:04 78° WNW 16:12:24 10° NNE
ATLAS 3B R/B 3.3 15:59:11 10° NW 16:07:05 69° NE 16:14:37 10° SE
Cosmos 371 Rocket 3.4 16:07:11 45° SW 16:08:32 68° WNW 16:13:22 10° NNE
SJ 16-02 2.8 16:12:41 22° W 16:14:05 27° WNW 16:17:48 10° N
SL-4 R/B 4.0 16:11:48 10° WNW 16:15:18 27° N 16:18:40 10° NE
Cosmos 2151 Rocket 3.6 16:12:34 10° N 16:17:01 81° E 16:18:25 43° SSE
In-Cosmos 22 Rocket 4.2 16:15:52 38° S 16:18:09 82° E 16:23:55 10° NNE
Okean 2 Rocket 3.2 16:15:35 10° N 16:20:04 71° E 16:21:44 37° SSE
ATLAS 2AS CENTAUR R/B 3.4 16:15:35 19° WSW 16:20:35 51° NW 16:27:20 10° NNE
Nimbus 7 Rocket 4.4 16:19:56 10° NNE 16:25:52 82° WNW 16:28:38 34° SSW
Okean 1 Rocket 3.2 16:26:43 10° N 16:31:10 70° E 16:33:10 32° SSE
ADEOS II 4.2 16:27:50 10° NE 16:31:22 18° E 16:34:53 10° SE
Cosmos 1025 Rocket 3.0 16:33:21 42° S 16:34:42 75° E 16:38:57 10° NNE
Cosmos 1378 Rocket 4.1 16:35:49 37° WSW 16:37:00 46° WNW 16:41:15 10° N
Cosmos 158 Rocket 4.2 16:32:46 10° NNW 16:37:50 65° ENE 16:41:52 15° SSE
FENGYUN 3A 4.3 16:40:13 10° NNE 16:45:25 49° E 16:48:42 22° SSE
Cosmos 1975 Rocket 4.4 16:47:08 17° SSE 16:49:59 35° E 16:54:01 10° NNE
Cosmos 1428 Rocket 4.5 16:49:59 29° SSW 16:53:17 72° W 16:59:24 10° N
MOZ.5/SAFIR/RUBIN 5/SL-8 3.7 16:50:54 23° SSE 16:53:44 83° ENE 16:58:20 10° NNW
Cosmos 1833 Rocket 3.1 16:50:17 10° NW 16:55:30 41° WSW 16:57:41 29° SSW
IDEFIX/ARIANE 42P 2.5 16:50:39 10° NNE 16:55:55 82° WNW 16:58:40 29° SSW
MSX 3.8 16:50:10 10° NNE 16:55:56 89° WNW 16:59:14 27° SSW
SL-24 R/B - RUBIN 2 3.7 16:51:57 10° NW 16:56:41 57° WSW 16:59:00 26° S
Cosmos 1340 Rocket 3.3 16:53:43 10° NNW 16:57:18 38° W 16:57:58 35° WSW
Cosmos 1814 Rocket 4.3 16:53:09 10° NNW 16:58:18 50° WSW 17:00:49 28° SSW
Meteor 1-11 4.3 17:00:09 27° SSW 17:03:22 74° W 17:09:12 10° N
NPP 3.6 17:01:59 10° NNE 17:07:23 78° WNW 17:10:36 25° SSW
H-2A R/B 4.3 17:09:52 13° W 17:09:52 13° W 17:11:15 10° WNW
CZ-2C R/B 4.5 17:06:16 10° N 17:10:45 27° WNW 17:13:40 16° WSW
H-2A R/B 1.8 17:08:41 10° NNE 17:12:40 81° WNW 17:14:38 29° SSW
USA 229 DEB 4.0 17:06:29 10° NW 17:13:59 68° WSW 17:22:07 10° SSE
USA 229 4.0 17:06:35 10° NW 17:14:05 68° WSW 17:22:13 10° SSE
COSMOS 2406 4.4 17:09:01 10° NNW 17:14:32 45° ENE 17:20:00 10° SE
ATLAS 5 CENTAUR R/B 2.4 17:15:08 18° SSE 17:16:15 23° ESE 17:18:51 10° ENE
Cosmos 1455 Rocket 2.9 17:13:20 10° N 17:17:42 81° W 17:20:39 20° S
SL-16 R/B 4.1 17:13:38 10° SE 17:19:08 35° ENE 17:24:42 10° N
Cosmos 220 Rocket 4.5 17:19:54 10° NNW 17:24:01 58° ENE 17:28:07 10° SSE
Cosmos 2082 Rocket 2.3 17:19:27 10° NNW 17:25:12 84° ENE 17:30:55 10° SSE
Resurs 1-4 Rocket 2.1 17:20:03 10° NNE 17:25:21 82° ESE 17:29:19 18° S
Cosmos 2278 Rocket 2.6 17:23:49 21° SW 17:27:30 54° WNW 17:33:04 10° NNE
Cosmos 1486 Rocket 4.4 17:23:49 17° S 17:27:41 60° ESE 17:32:50 10° NNE
CZ-2C R/B 4.3 17:28:43 14° WSW 17:30:10 16° W 17:33:16 10° NW
USA 234 4.5 17:27:09 10° NE 17:33:02 37° NNW 17:38:55 10° W
Cosmos 1943 Rocket 2.6 17:31:40 19° SW 17:35:24 51° WNW 17:40:47 10° NNE
SAR-Lupe-3 4.1 17:33:36 14° SSE 17:36:00 75° ENE 17:38:56 10° N
CZ-2D R/B 2.1 17:33:08 10° NNE 17:38:35 84° WNW 17:42:55 16° SSW
Cosmos 1515 2.6 17:37:13 10° NNW 17:39:55 73° W 17:41:27 23° S
Cosmos 1553 Rocket 3.9 17:35:00 10° N 17:41:06 86° W 17:47:12 10° S
Cosmos 2228 3.1 17:37:59 10° N 17:42:07 74° E 17:46:14 10° SSE
Cosmos 1812 3.3 17:43:31 10° NNW 17:46:15 27° W 17:47:25 21° SW
SL-4 R/B 3.5 17:50:22 10° NW 17:54:01 36° NNE 17:57:29 10° E
Cosmos 2098 Rocket 2.6 17:50:38 10° NNW 17:54:18 52° W 17:56:50 15° SSW
ALOS 2.2 17:52:01 10° NNE 17:56:35 82° WNW 18:00:49 12° SSW
ATLAS 3B R/B 3.7 17:50:45 10° NW 17:57:18 30° WSW 18:03:35 10° SSW
USA 281 3.8 17:51:33 10° NNE 17:57:59 54° ESE 18:04:23 10° S
Cosmos 1544 Rocket 3.5 17:57:17 10° N 18:01:36 88° W 18:05:54 10° S
CZ-2C R/B 4.4 17:59:58 10° NE 18:03:37 23° E 18:07:19 10° SSE
Cosmos 1503 Rocket 4.1 17:59:20 11° SSW 18:04:25 81° ESE 18:09:40 10° NNE
Cosmos 2369 Rocket 3.2 17:59:14 10° S 18:04:34 42° ESE 18:09:54 10° NE
NOAA 11 4.2 17:59:30 10° N 18:05:01 77° WNW 18:10:29 10° SSW
Cosmos 2266 Rocket 4.1 17:59:37 10° S 18:05:45 81° E 18:12:01 10° N
AQUA 3.9 18:04:23 10° NNE 18:09:06 81° ESE 18:13:47 10° SSW
ADEOS II 2.3 18:06:11 10° N 18:11:20 61° WNW 18:16:28 10° SSW
H-2A R/B 4.5 18:08:15 10° NNE 18:11:59 41° E 18:15:42 10° S
USA 305 0.5 18:14:19 10° NW 18:15:30 38° NNE 18:15:51 21° E
Cosmos 2208 Rocket 4.3 18:12:43 10° NNW 18:17:36 44° WSW 18:22:29 10° S
NOSS 3-3 (A) 3.8 18:15:28 10° SSW 18:20:38 73° ESE 18:26:43 10° NE
Cosmos 773 Rocket 4.2 18:18:32 10° NNW 18:23:33 50° WSW 18:28:34 10° S
Cosmos 990 Rocket 4.4 18:23:38 10° S 18:28:40 64° ESE 18:33:46 10° NNE
Cosmos 2084 3.2 18:32:21 10° NW 18:36:19 89° NE 18:40:12 10° SE
DMSP B5D2-2 4.3 18:32:13 10° S 18:37:19 51° W 18:42:27 10° NNW
Atlas Centaur 2 4.1 18:35:33 10° SW 18:42:01 26° S 18:48:16 10° ESE
BREEZE-M DEB 4.5 18:35:56 10° W 18:49:25 62° NNW 18:53:09 10° ENE
